| time (UTC) | temp C | wind direction | speed KPH | gust KPH | rain 1hr cm | rain 24hr cm | rain mn cm | humidity % | barometer mb |
| 20260506070520 | 20 | 220 | 3.2 | 4.8 | 0.00 | 0.00 | 0.00 | 67 | 1011.2 |
| 20260506062018 | 20 | 223 | 1.6 | 4.8 | 0.00 | 0.00 | 0.00 | 61 | 1012.0 |
| 20260506061518 | 21 | 223 | 0.0 | 4.8 | 0.00 | 0.00 | 0.00 | 60 | 1012.0 |
| 20260506061018 | 21 | 223 | 1.6 | 4.8 | 0.00 | 0.00 | 0.00 | 60 | 1011.9 |
| 20260506051016 | 21 | 205 | 0.0 | 3.2 | 0.00 | 0.00 | 0.00 | 55 | 1011.6 |
| 20260506050516 | 21 | 205 | 0.0 | 3.2 | 0.00 | 0.00 | 0.00 | 55 | 1011.6 |
| 20260506045016 | 21 | 205 | 0.0 | 3.2 | 0.00 | 0.00 | 0.00 | 56 | 1011.6 |
| 20260506044516 | 21 | 205 | 0.0 | 4.8 | 0.00 | 0.00 | 0.00 | 55 | 1011.6 |
| 20260506042515 | 21 | 205 | 1.6 | 3.2 | 0.00 | 0.00 | 0.00 | 55 | 1012.0 |
| 20260506042015 | 21 | 205 | 0.0 | 3.2 | 0.00 | 0.00 | 0.00 | 55 | 1012.0 |
| 20260506041515 | 21 | 205 | 1.6 | 3.2 | 0.00 | 0.00 | 0.00 | 55 | 1012.0 |
| 20260506041015 | 21 | 205 | 1.6 | 3.2 | 0.00 | 0.00 | 0.00 | 55 | 1011.7 |
| 20260506040014 | 21 | 205 | 1.6 | 4.8 | 0.00 | 0.00 | 0.00 | 55 | 1011.7 |
| 20260506035514 | 21 | 205 | 0.0 | 1.6 | 0.00 | 0.00 | 0.00 | 54 | 1011.6 |
| 20260506035014 | 21 | 205 | 0.0 | 3.2 | 0.00 | 0.00 | 0.00 | 54 | 1011.6 |
| 20260506034013 | 21 | 205 | 0.0 | 3.2 | 0.00 | 0.00 | 0.00 | 53 | 1011.8 |
| 20260506033513 | 21 | 205 | 0.0 | 3.2 | 0.00 | 0.00 | 0.00 | 52 | 1011.8 |
| 20260506033013 | 21 | 205 | 1.6 | 3.2 | 0.00 | 0.00 | 0.00 | 52 | 1011.8 |
| 20260506032513 | 21 | 205 | 0.0 | 3.2 | 0.00 | 0.00 | 0.00 | 52 | 1011.9 |
| 20260506031513 | 21 | 205 | 1.6 | 4.8 | 0.00 | 0.00 | 0.00 | 51 | 1011.8 |
| 20260506031013 | 21 | 205 | 1.6 | 4.8 | 0.00 | 0.00 | 0.00 | 50 | 1011.8 |
| 20260506030513 | 21 | 205 | 1.6 | 3.2 | 0.00 | 0.00 | 0.00 | 50 | 1011.8 |
| 20260506030013 | 21 | 205 | 1.6 | 3.2 | 0.00 | 0.00 | 0.00 | 49 | 1011.8 |
| 20260506025512 | 21 | 205 | 1.6 | 3.2 | 0.00 | 0.00 | 0.00 | 49 | 1011.9 |
| 20260506025012 | 21 | 205 | 1.6 | 1.6 | 0.00 | 0.00 | 0.00 | 50 | 1011.9 |
| 20260506024512 | 21 | 205 | 0.0 | 1.6 | 0.00 | 0.00 | 0.00 | 50 | 1011.9 |
| 20260506023512 | 21 | 205 | 0.0 | 3.2 | 0.00 | 0.00 | 0.00 | 51 | 1011.9 |
| 20260506023012 | 21 | 205 | 0.0 | 3.2 | 0.00 | 0.00 | 0.00 | 48 | 1011.9 |
| 20260506022511 | 21 | 205 | 0.0 | 1.6 | 0.00 | 0.00 | 0.00 | 49 | 1011.7 |
| 20260506022011 | 21 | 205 | 0.0 | 1.6 | 0.00 | 0.00 | 0.00 | 49 | 1011.7 |
| 20260506021511 | 21 | 205 | 0.0 | 1.6 | 0.00 | 0.00 | 0.00 | 48 | 1011.7 |
| 20260506021011 | 21 | 205 | 0.0 | 1.6 | 0.00 | 0.00 | 0.00 | 48 | 1011.5 |
| 20260506020511 | 21 | 205 | 0.0 | 1.6 | 0.00 | 0.00 | 0.00 | 48 | 1011.5 |
| 20260506020011 | 21 | 205 | 0.0 | 1.6 | 0.00 | 0.00 | 0.00 | 48 | 1011.5 |
| 20260506015511 | 21 | 205 | 1.6 | 3.2 | 0.00 | 0.00 | 0.00 | 47 | 1011.2 |
| 20260506015010 | 21 | 205 | 0.0 | 3.2 | 0.00 | 0.00 | 0.00 | 46 | 1011.2 |
| 20260506014510 | 21 | 205 | 1.6 | 3.2 | 0.00 | 0.00 | 0.00 | 46 | 1011.2 |
| 20260506014010 | 22 | 205 | 1.6 | 3.2 | 0.00 | 0.00 | 0.00 | 45 | 1011.1 |
| 20260506013510 | 22 | 205 | 0.0 | 3.2 | 0.00 | 0.00 | 0.00 | 47 | 1011.2 |
| 20260506013010 | 22 | 205 | 0.0 | 1.6 | 0.00 | 0.00 | 0.00 | 47 | 1011.2 |
| 20260506012010 | 22 | 205 | 0.0 | 3.2 | 0.00 | 0.00 | 0.00 | 47 | 1011.2 |
| 20260506011510 | 22 | 205 | 1.6 | 3.2 | 0.00 | 0.00 | 0.00 | 44 | 1011.1 |
| 20260506011009 | 22 | 205 | 0.0 | 3.2 | 0.00 | 0.00 | 0.00 | 44 | 1011.2 |
| 20260506010509 | 22 | 205 | 0.0 | 3.2 | 0.00 | 0.00 | 0.00 | 44 | 1011.2 |
| 20260506010009 | 22 | 205 | 0.0 | 4.8 | 0.00 | 0.00 | 0.00 | 44 | 1011.2 |
| 20260506005509 | 22 | 205 | 0.0 | 4.8 | 0.00 | 0.00 | 0.00 | 43 | 1011.0 |
| 20260506004508 | 22 | 205 | 1.6 | 4.8 | 0.00 | 0.00 | 0.00 | 42 | 1011.0 |
| 20260506004008 | 22 | 205 | 1.6 | 6.4 | 0.00 | 0.00 | 0.00 | 42 | 1011.1 |
| 20260506003508 | 23 | 205 | 1.6 | 6.4 | 0.00 | 0.00 | 0.00 | 42 | 1011.1 |
| 20260506003008 | 23 | 205 | 0.0 | 4.8 | 0.00 | 0.00 | 0.00 | 42 | 1011.1 |
| 20260506002508 | 23 | 205 | 3.2 | 4.8 | 0.00 | 0.00 | 0.00 | 42 | 1011.1 |
| 20260506002008 | 23 | 205 | 1.6 | 4.8 | 0.00 | 0.00 | 0.00 | 43 | 1011.1 |
| 20260506001007 | 23 | 205 | 0.0 | 1.6 | 0.00 | 0.00 | 0.00 | 44 | 1011.0 |
| 20260506000507 | 23 | 205 | 0.0 | 1.6 | 0.00 | 0.00 | 0.00 | 43 | 1011.0 |
| 20260506000007 | 23 | 205 | 0.0 | 3.2 | 0.00 | 0.00 | 0.00 | 42 | 1011.0 |
| 20260505235507 | 24 | 205 | 0.0 | 3.2 | 0.00 | 0.00 | 0.00 | 42 | 1011.0 |
| 20260505235007 | 24 | 205 | 0.0 | 4.8 | 0.00 | 0.00 | 0.00 | 42 | 1011.0 |
| 20260505234506 | 24 | 205 | 0.0 | 4.8 | 0.00 | 0.00 | 0.00 | 42 | 1011.0 |
| 20260505234007 | 24 | 205 | 1.6 | 4.8 | 0.00 | 0.00 | 0.00 | 41 | 1010.9 |
| 20260505233506 | 24 | 205 | 3.2 | 3.2 | 0.00 | 0.00 | 0.00 | 41 | 1010.9 |
| 20260505233006 | 24 | 205 | 1.6 | 4.8 | 0.00 | 0.00 | 0.00 | 41 | 1010.9 |
| 20260505232006 | 24 | 205 | 1.6 | 4.8 | 0.00 | 0.00 | 0.00 | 42 | 1010.8 |
| 20260505231506 | 25 | 205 | 1.6 | 3.2 | 0.00 | 0.00 | 0.00 | 41 | 1010.8 |
| 20260505231006 | 25 | 205 | 1.6 | 3.2 | 0.00 | 0.00 | 0.00 | 43 | 1010.8 |
| 20260505230506 | 25 | 205 | 1.6 | 3.2 | 0.00 | 0.00 | 0.00 | 43 | 1010.8 |
| 20260505230005 | 25 | 205 | 0.0 | 4.8 | 0.00 | 0.00 | 0.00 | 42 | 1010.8 |
| 20260505225005 | 25 | 205 | 1.6 | 4.8 | 0.00 | 0.00 | 0.00 | 41 | 1010.9 |
| 20260505223505 | 24 | 205 | 0.0 | 4.8 | 0.00 | 0.00 | 0.00 | 40 | 1010.8 |
| 20260505223004 | 25 | 205 | 3.2 | 3.2 | 0.00 | 0.00 | 0.00 | 42 | 1010.8 |
| 20260505222504 | 25 | 205 | 1.6 | 6.4 | 0.00 | 0.00 | 0.00 | 41 | 1010.8 |
| 20260505222004 | 25 | 205 | 3.2 | 8.0 | 0.00 | 0.00 | 0.00 | 39 | 1010.8 |
| 20260505221004 | 25 | 214 | 0.0 | 4.8 | 0.00 | 0.00 | 0.00 | 40 | 1010.5 |
| 20260505220504 | 25 | 214 | 0.0 | 4.8 | 0.00 | 0.00 | 0.00 | 39 | 1010.5 |
| 20260505220003 | 25 | 214 | 1.6 | 4.8 | 0.00 | 0.00 | 0.00 | 38 | 1010.5 |
| 20260505215503 | 25 | 207 | 1.6 | 4.8 | 0.00 | 0.00 | 0.00 | 39 | 1011.0 |
| 20260505215003 | 25 | 205 | 1.6 | 6.4 | 0.00 | 0.00 | 0.00 | 40 | 1011.1 |
| 20260505214503 | 25 | 203 | 4.8 | 6.4 | 0.00 | 0.00 | 0.00 | 38 | 1011.1 |
| 20260505214003 | 25 | 182 | 3.2 | 6.4 | 0.00 | 0.00 | 0.00 | 38 | 1011.1 |
| 20260505213503 | 25 | 212 | 3.2 | 8.0 | 0.00 | 0.00 | 0.00 | 39 | 1011.1 |
| 20260505213002 | 25 | 226 | 3.2 | 8.0 | 0.00 | 0.00 | 0.00 | 39 | 1011.1 |
| 20260505212503 | 25 | 240 | 4.8 | 8.0 | 0.00 | 0.00 | 0.00 | 39 | 1011.1 |
| 20260505211502 | 25 | 234 | 0.0 | 8.0 | 0.00 | 0.00 | 0.00 | 39 | 1011.1 |
| 20260505211002 | 25 | 209 | 0.0 | 8.0 | 0.00 | 0.00 | 0.00 | 40 | 1011.1 |
| 20260505210502 | 25 | 222 | 4.8 | 6.4 | 0.00 | 0.00 | 0.00 | 38 | 1011.1 |
| 20260505210002 | 25 | 240 | 3.2 | 9.7 | 0.00 | 0.00 | 0.00 | 39 | 1011.1 |
| 20260505205501 | 25 | 211 | 3.2 | 14.5 | 0.00 | 0.00 | 0.00 | 37 | 1011.3 |
| 20260505205002 | 25 | 203 | 9.7 | 14.5 | 0.00 | 0.00 | 0.00 | 37 | 1011.3 |
| 20260505204501 | 25 | 211 | 3.2 | 6.4 | 0.00 | 0.00 | 0.00 | 39 | 1011.3 |
| 20260505203501 | 25 | 220 | 1.6 | 8.0 | 0.00 | 0.00 | 0.00 | 40 | 1011.4 |
| 20260505202501 | 25 | 212 | 3.2 | 6.4 | 0.00 | 0.00 | 0.00 | 40 | 1011.7 |
| 20260505202001 | 25 | 212 | 1.6 | 8.0 | 0.00 | 0.00 | 0.00 | 41 | 1011.7 |
| 20260505201500 | 25 | 256 | 1.6 | 8.0 | 0.00 | 0.00 | 0.00 | 41 | 1011.7 |
| 20260505201000 | 25 | 198 | 1.6 | 6.4 | 0.00 | 0.00 | 0.00 | 41 | 1011.8 |
| 20260505200500 | 25 | 198 | 0.0 | 6.4 | 0.00 | 0.00 | 0.00 | 42 | 1011.8 |
| 20260505200000 | 24 | 222 | 0.0 | 8.0 | 0.00 | 0.00 | 0.00 | 42 | 1011.7 |
| 20260505195500 | 25 | 206 | 6.4 | 8.0 | 0.00 | 0.00 | 0.00 | 41 | 1012.2 |
| 20260505195000 | 24 | 207 | 1.6 | 8.0 | 0.00 | 0.00 | 0.00 | 44 | 1012.2 |
| 20260505194500 | 24 | 220 | 4.8 | 8.0 | 0.00 | 0.00 | 0.00 | 41 | 1012.2 |
| 20260505194000 | 24 | 232 | 4.8 | 6.4 | 0.00 | 0.00 | 0.00 | 41 | 1012.3 |
| 20260505193029 | 24 | 225 | 1.6 | 4.8 | 0.00 | 0.00 | 0.00 | 42 | 1012.3 |
| 20260505192459 | 24 | 225 | 1.6 | 6.4 | 0.00 | 0.00 | 0.00 | 42 | 1012.3 |
| 20260505191959 | 24 | 232 | 3.2 | 6.4 | 0.00 | 0.00 | 0.00 | 43 | 1012.3 |
| 20260505191459 | 24 | 232 | 3.2 | 8.0 | 0.00 | 0.00 | 0.00 | 41 | 1012.3 |
| 20260505190528 | 23 | 205 | 0.0 | 6.4 | 0.00 | 0.00 | 0.00 | 43 | 1012.3 |
| 20260505185958 | 23 | 204 | 1.6 | 9.7 | 0.00 | 0.00 | 0.00 | 44 | 1012.3 |
| 20260505185458 | 23 | 203 | 3.2 | 9.7 | 0.00 | 0.00 | 0.00 | 42 | 1012.7 |
| 20260505184958 | 23 | 210 | 3.2 | 6.4 | 0.00 | 0.00 | 0.00 | 44 | 1012.7 |
| 20260505184458 | 24 | 9 | 0.0 | 6.4 | 0.00 | 0.00 | 0.00 | 42 | 1012.7 |
| 20260505183958 | 24 | 221 | 4.8 | 6.4 | 0.00 | 0.00 | 0.00 | 44 | 1012.8 |
| 20260505183527 | 24 | 237 | 3.2 | 6.4 | 0.00 | 0.00 | 0.00 | 44 | 1012.8 |
| 20260505183027 | 24 | 257 | 1.6 | 6.4 | 0.00 | 0.00 | 0.00 | 45 | 1012.8 |
| 20260505182457 | 23 | 200 | 3.2 | 8.0 | 0.00 | 0.00 | 0.00 | 46 | 1013.0 |
| 20260505181957 | 23 | 201 | 6.4 | 8.0 | 0.00 | 0.00 | 0.00 | 43 | 1013.0 |
| 20260505181527 | 23 | 236 | 3.2 | 6.4 | 0.00 | 0.00 | 0.00 | 43 | 1013.0 |
| 20260505181027 | 23 | 173 | 4.8 | 6.4 | 0.00 | 0.00 | 0.00 | 43 | 1013.3 |
| 20260505180527 | 23 | 130 | 1.6 | 8.0 | 0.00 | 0.00 | 0.00 | 45 | 1013.3 |
| 20260505175526 | 23 | 234 | 1.6 | 9.7 | 0.00 | 0.00 | 0.00 | 44 | 1013.3 |
| 20260505174526 | 23 | 217 | 6.4 | 8.0 | 0.00 | 0.00 | 0.00 | 45 | 1013.3 |
| 20260505174026 | 23 | 225 | 4.8 | 6.4 | 0.00 | 0.00 | 0.00 | 46 | 1013.8 |
| 20260505173526 | 23 | 269 | 1.6 | 6.4 | 0.00 | 0.00 | 0.00 | 46 | 1013.8 |
| 20260505173026 | 23 | 242 | 1.6 | 6.4 | 0.00 | 0.00 | 0.00 | 46 | 1013.8 |
| 20260505172526 | 23 | 129 | 1.6 | 4.8 | 0.00 | 0.00 | 0.00 | 47 | 1013.7 |
| 20260505172025 | 23 | 227 | 1.6 | 6.4 | 0.00 | 0.00 | 0.00 | 46 | 1013.7 |
| 20260505171525 | 23 | 161 | 1.6 | 6.4 | 0.00 | 0.00 | 0.00 | 46 | 1013.7 |
| 20260505171025 | 23 | 206 | 1.6 | 6.4 | 0.00 | 0.00 | 0.00 | 45 | 1013.7 |
| 20260505170525 | 23 | 207 | 1.6 | 6.4 | 0.00 | 0.00 | 0.00 | 44 | 1013.7 |
| 20260505170025 | 23 | 190 | 1.6 | 6.4 | 0.00 | 0.00 | 0.00 | 47 | 1013.7 |
| 20260505165525 | 23 | 215 | 3.2 | 6.4 | 0.00 | 0.00 | 0.00 | 47 | 1013.4 |
| 20260505165024 | 23 | 223 | 3.2 | 6.4 | 0.00 | 0.00 | 0.00 | 48 | 1013.5 |
| 20260505164024 | 23 | 76 | 1.6 | 8.0 | 0.00 | 0.00 | 0.00 | 47 | 1013.7 |
| 20260505163524 | 23 | 248 | 4.8 | 11.3 | 0.00 | 0.00 | 0.00 | 49 | 1013.8 |
| 20260505163024 | 22 | 237 | 8.0 | 11.3 | 0.00 | 0.00 | 0.00 | 49 | 1013.7 |
| 20260505162524 | 22 | 216 | 1.6 | 6.4 | 0.00 | 0.00 | 0.00 | 49 | 1013.9 |
| 20260505162024 | 22 | 210 | 3.2 | 8.0 | 0.00 | 0.00 | 0.00 | 48 | 1013.9 |
| 20260505161523 | 22 | 221 | 3.2 | 8.0 | 0.00 | 0.00 | 0.00 | 47 | 1013.9 |
| 20260505161023 | 22 | 217 | 3.2 | 8.0 | 0.00 | 0.00 | 0.00 | 47 | 1014.2 |
| 20260505160523 | 22 | 253 | 3.2 | 9.7 | 0.00 | 0.00 | 0.00 | 48 | 1014.2 |
| 20260505152522 | 21 | 229 | 0.0 | 0.0 | 0.00 | 0.00 | 0.00 | 51 | 1014.0 |
| 20260505152022 | 21 | 229 | 0.0 | 0.0 | 0.00 | 0.00 | 0.00 | 54 | 1014.0 |
| 20260505151021 | 20 | 229 | 0.0 | 4.8 | 0.00 | 0.00 | 0.00 | 62 | 1014.1 |
| 20260505150521 | 20 | 229 | 0.0 | 4.8 | 0.00 | 0.00 | 0.00 | 62 | 1014.1 |
| 20260505140519 | 15 | 9 | 3.2 | 4.8 | 0.00 | 0.00 | 0.00 | 80 | 1013.7 |
| 20260505125017 | 11 | 203 | 0.0 | 0.0 | 0.00 | 0.00 | 0.00 | 92 | 1013.3 |
| 20260505124517 | 11 | 203 | 0.0 | 0.0 | 0.00 | 0.00 | 0.00 | 92 | 1013.3 |
| 20260505124017 | 11 | 203 | 0.0 | 0.0 | 0.00 | 0.00 | 0.00 | 92 | 1013.2 |
| 20260505122516 | 11 | 203 | 0.0 | 0.0 | 0.00 | 0.00 | 0.00 | 92 | 1013.2 |
| 20260505122016 | 10 | 203 | 0.0 | 0.0 | 0.00 | 0.00 | 0.00 | 92 | 1013.1 |
| 20260505121516 | 10 | 203 | 0.0 | 0.0 | 0.00 | 0.00 | 0.00 | 92 | 1013.1 |
| 20260505121016 | 10 | 203 | 0.0 | 0.0 | 0.00 | 0.00 | 0.00 | 92 | 1013.1 |
| 20260505120516 | 10 | 203 | 0.0 | 0.0 | 0.00 | 0.00 | 0.00 | 91 | 1013.1 |
| 20260505120016 | 10 | 203 | 0.0 | 0.0 | 0.00 | 0.00 | 0.00 | 91 | 1013.1 |
| 20260505115515 | 10 | 203 | 0.0 | 0.0 | 0.00 | 0.00 | 0.00 | 91 | 1013.2 |
| 20260505115015 | 10 | 203 | 0.0 | 0.0 | 0.00 | 0.00 | 0.00 | 90 | 1013.2 |
| 20260505114515 | 10 | 203 | 0.0 | 0.0 | 0.00 | 0.00 | 0.00 | 90 | 1013.2 |
| 20260505114015 | 10 | 203 | 0.0 | 0.0 | 0.00 | 0.00 | 0.00 | 90 | 1012.8 |
| 20260505113515 | 10 | 203 | 0.0 | 0.0 | 0.00 | 0.00 | 0.00 | 89 | 1012.8 |
| 20260505113015 | 10 | 203 | 0.0 | 0.0 | 0.00 | 0.00 | 0.00 | 89 | 1012.8 |
| 20260505112014 | 10 | 203 | 0.0 | 0.0 | 0.00 | 0.00 | 0.00 | 89 | 1012.6 |
| 20260505111514 | 10 | 203 | 0.0 | 0.0 | 0.00 | 0.00 | 0.00 | 89 | 1012.6 |
| 20260505110514 | 10 | 203 | 0.0 | 0.0 | 0.00 | 0.00 | 0.00 | 88 | 1012.4 |
| 20260505102013 | 10 | 203 | 0.0 | 0.0 | 0.00 | 0.00 | 0.00 | 87 | 1012.3 |
| 20260505101513 | 10 | 203 | 0.0 | 0.0 | 0.00 | 0.00 | 0.00 | 87 | 1012.3 |
| 20260505101012 | 10 | 203 | 0.0 | 0.0 | 0.00 | 0.00 | 0.00 | 87 | 1012.7 |
| 20260505100012 | 10 | 203 | 0.0 | 0.0 | 0.00 | 0.00 | 0.00 | 87 | 1012.8 |
| 20260505095512 | 10 | 203 | 0.0 | 0.0 | 0.00 | 0.00 | 0.00 | 87 | 1012.7 |
| 20260505095012 | 10 | 203 | 0.0 | 0.0 | 0.00 | 0.00 | 0.00 | 87 | 1012.7 |
| 20260505094512 | 10 | 203 | 0.0 | 0.0 | 0.00 | 0.00 | 0.00 | 87 | 1012.7 |
| 20260505094011 | 10 | 203 | 0.0 | 0.0 | 0.00 | 0.00 | 0.00 | 86 | 1012.4 |
| 20260505093511 | 10 | 203 | 0.0 | 0.0 | 0.00 | 0.00 | 0.00 | 86 | 1012.4 |
| 20260505093011 | 10 | 203 | 0.0 | 0.0 | 0.00 | 0.00 | 0.00 | 86 | 1012.4 |
| 20260505092511 | 10 | 203 | 0.0 | 1.6 | 0.00 | 0.00 | 0.00 | 86 | 1012.7 |
| 20260505092011 | 10 | 203 | 0.0 | 1.6 | 0.00 | 0.00 | 0.00 | 86 | 1012.7 |
| 20260505091011 | 10 | 203 | 0.0 | 0.0 | 0.00 | 0.00 | 0.00 | 86 | 1012.9 |
| 20260505090510 | 10 | 203 | 0.0 | 1.6 | 0.00 | 0.00 | 0.00 | 85 | 1012.9 |
| 20260505090010 | 10 | 203 | 0.0 | 1.6 | 0.00 | 0.00 | 0.00 | 85 | 1012.9 |
| 20260505084510 | 11 | 203 | 0.0 | 0.0 | 0.00 | 0.00 | 0.00 | 85 | 1012.9 |
| 20260505084010 | 11 | 203 | 0.0 | 0.0 | 0.00 | 0.00 | 0.00 | 85 | 1012.8 |
| 20260505083510 | 11 | 203 | 0.0 | 0.0 | 0.00 | 0.00 | 0.00 | 85 | 1012.8 |
| 20260505083009 | 11 | 203 | 0.0 | 0.0 | 0.00 | 0.00 | 0.00 | 85 | 1012.8 |
| 20260505082009 | 11 | 203 | 0.0 | 0.0 | 0.00 | 0.00 | 0.00 | 84 | 1012.9 |
| 20260505081509 | 11 | 203 | 0.0 | 1.6 | 0.00 | 0.00 | 0.00 | 84 | 1012.9 |
| 20260505081009 | 11 | 203 | 0.0 | 1.6 | 0.00 | 0.00 | 0.00 | 84 | 1012.9 |
| 20260505080009 | 11 | 203 | 0.0 | 1.6 | 0.00 | 0.00 | 0.00 | 84 | 1012.9 |
| 20260505075508 | 11 | 203 | 0.0 | 1.6 | 0.00 | 0.00 | 0.00 | 83 | 1012.7 |
| 20260505075008 | 11 | 203 | 0.0 | 1.6 | 0.00 | 0.00 | 0.00 | 83 | 1012.8 |
| 20260505074508 | 11 | 203 | 0.0 | 1.6 | 0.00 | 0.00 | 0.00 | 83 | 1012.8 |
| 20260505074008 | 11 | 203 | 0.0 | 0.0 | 0.00 | 0.00 | 0.00 | 82 | 1012.9 |
| 20260505073508 | 11 | 203 | 0.0 | 0.0 | 0.00 | 0.00 | 0.00 | 82 | 1012.9 |
| 20260505073008 | 11 | 203 | 0.0 | 0.0 | 0.00 | 0.00 | 0.00 | 82 | 1012.9 |
| 20260505072507 | 11 | 203 | 0.0 | 0.0 | 0.00 | 0.00 | 0.00 | 81 | 1013.0 |
| 20260505072007 | 11 | 203 | 0.0 | 0.0 | 0.00 | 0.00 | 0.00 | 81 | 1013.0 |
| 20260505071007 | 11 | 203 | 0.0 | 1.6 | 0.00 | 0.00 | 0.00 | 81 | 1013.0 |